Location: Lake Arresoe
(56.0000°N, 12.5000°E)
Time: 17:38:08
(UTC+02:00)

Resurs 1-4 Rocket - Pass Details

Date: 28 July 2021
Orbit: 799 x 815 km, 98.6° (Epoch: 23 September)

Event Time Altitude Azimuth Distance (km) Brightness Sun altitude
Rises 02:33:10 0° 18° (NNE) 3,352 7.4 -13.3°
Reaches altitude 10° 02:35:36 10° 23° (NNE) 2,414 6.1 -13.2°
Maximum altitude 02:40:49 53° 101° (E) 991 2.6 -12.9°
Enters shadow 02:45:11 14° 175° (S) 2,089 3.7 -12.7°
